Find Starlink 37583

NORAD ID: 69466 Int'l Des: 2026-127 Owner: SPXS Country: US Constellation: starlink operational
LEOCIRCULAR

現在のビュー

3D地球を読み込み中...

About Starlink 37583

Starlink 37583 (NORAD 69466) is a starlink constellation satellite launched Jun 8, 2026 by SPXS of US. It operates in LEO, CIRCULAR orbit with a mass of 575.00 kg.

次回通過

Passes for default location (London). Set your location on the main map for personalized predictions.

高度履歴

Loading altitude history...

軌道要素

1 69466U 26127Z 26206.34788898 .00078811 00000-0 14077-2 0 9996
2 69466 53.1610 73.1641 0000884 61.3316 298.7782 15.49371969 7410
Epoch: Jul 25, 2026 • Age: 26 hours

現在のステータス

高度 437.1 km
遠地点 / 近地点 N/A
速度 7.65 km/s
衛星直下点 -53.10°S, 127.17°W
打ち上げ日 Jun 8, 2026
運用期間 0.1 years
タイプ internet

技術仕様

分類 Payload
質量 575.00 kg
乾燥質量 530.00 kg
総質量 575.00 kg
長さ 0.30 m
直径 4.10 m
スパン 29.00 m
形状 Box + pan
製造者 SPXS
バスタイプ Starlink V2MO
フェーズステータス In Orbit
所有者/国 SPXS/US

Most Searched